Mosinee, WI

9:18 PM CDT on June 22, 2017 (GMT -0500)
Central Wisconsin

Weather History for KCWA - July, 2013

Change the Weather History Date:

Tuesday, July 16, 2013

  Actual Average Record
Temperature  
Mean Temperature 78 °F -  
Max Temperature 87 °F 76 °F 96 °F (2012)
Min Temperature 69 °F 56 °F 42 °F (2014)
Cooling Degree Days 13    
Growing Degree Days 28 (Base 50)    
Moisture  
Dew Point 72 °F    
Average Humidity 89    
Maximum Humidity 100    
Minimum Humidity 58    
Precipitation  
Precipitation 0.00 in - - ()
Sea Level Pressure  
Sea Level Pressure 30.27 in    
Wind  
Wind Speed 6 mph (SSW)    
Max Wind Speed 13 mph    
Max Gust Speed -    
Visibility 8 miles    
Events      
Averages and records for this station are not official NWS values.
T = Trace of Precipitation, MM = Missing Value Source: NWS Daily Summary

Daily Weather History Graph

Daily Weather History Graph

Search for Another Location

Airport or City:

Trip Planner

Search our weather history database for the weather conditions in past years. The results will help you decide how hot, cold, wet, or windy it might be!

Date:

Astronomy

Jul. 16, 2013 Rise Set
Actual Time 5:28 AM CDT 8:40 PM CDT
Civil Twilight 4:52 AM CDT 9:16 PM CDT
Nautical Twilight 4:06 AM CDT 10:02 PM CDT
Astronomical Twilight 3:09 AM CDT 10:58 PM CDT
Moon 2:16 PM CDT (7/16) 12:05 AM CDT (7/16)
Length of Visible Light 16h 23m
Length of Day
15h 12m
First Quarter, 56% of the Moon is Illuminated
Jul 16
First Quarter
Jul 22
Full
Jul 29
Last Quarter
Aug 6
New
Aug 14
First Quarter

Hourly Weather History & Observations

Time (CDT) Temp. Heat Index Dew Point Humidity Pressure Visibility Wind Dir Wind Speed Gust Speed Precip Events Conditions
12:15 AM 73.4 °F - 71.6 °F 94% 30.28 in 7.0 mi SSE 6.9 mph - N/A   Clear
12:35 AM 71.6 °F - 71.6 °F 100% 30.28 in 7.0 mi SSE 5.8 mph - N/A   Clear
12:55 AM 71.6 °F - 71.6 °F 100% 30.28 in 7.0 mi SSE 5.8 mph - N/A   Clear
1:15 AM 71.6 °F - 71.6 °F 100% 30.28 in 7.0 mi SE 4.6 mph - N/A   Clear
1:35 AM 71.6 °F - 69.8 °F 94% 30.28 in 7.0 mi SSE 3.5 mph - N/A   Clear
1:55 AM 71.6 °F - 71.6 °F 100% 30.28 in 7.0 mi SE 3.5 mph - N/A   Clear
2:15 AM 71.6 °F - 69.8 °F 94% 30.27 in 7.0 mi SE 3.5 mph - N/A   Clear
2:35 AM 69.8 °F - 69.8 °F 100% 30.27 in 5.0 mi SSE 5.8 mph - N/A   Clear
2:55 AM 69.8 °F - 69.8 °F 100% 30.28 in 5.0 mi South 5.8 mph - N/A   Clear
3:15 AM 71.6 °F - 71.6 °F 100% 30.27 in 5.0 mi South 6.9 mph - N/A   Clear
3:35 AM 71.6 °F - 71.6 °F 100% 30.28 in 5.0 mi South 5.8 mph - N/A   Clear
3:55 AM 71.6 °F - 71.6 °F 100% 30.28 in 5.0 mi South 5.8 mph - N/A   Clear
4:15 AM 71.6 °F - 71.6 °F 100% 30.27 in 5.0 mi SSW 6.9 mph - N/A   Clear
4:35 AM 71.6 °F - 71.6 °F 100% 30.28 in 7.0 mi SSW 5.8 mph - N/A   Clear
4:55 AM 71.6 °F - 71.6 °F 100% 30.27 in 7.0 mi SSW 5.8 mph - N/A   Clear
5:15 AM 69.8 °F - 69.8 °F 100% 30.27 in 5.0 mi South 4.6 mph - N/A   Clear
5:35 AM 69.8 °F - 69.8 °F 100% 30.28 in 5.0 mi South 4.6 mph - N/A   Clear
5:45 AM 71.6 °F - 71.6 °F 100% 30.28 in 5.0 mi Calm Calm - N/A   Clear
6:45 AM 71.6 °F - 71.6 °F 100% 30.28 in 5.0 mi Calm Calm - N/A   Clear
7:45 AM 77.0 °F - 75.2 °F 94% 30.29 in 5.0 mi SSW 6.9 mph - N/A   Clear
8:45 AM 80.6 °F 86.2 °F 75.2 °F 84% 30.31 in 7.0 mi SW 6.9 mph - N/A   Clear
9:50 AM 82.4 °F 88.2 °F 73.4 °F 74% 30.30 in 10.0 mi SW 8.1 mph - N/A   Scattered Clouds
10:45 AM 84.2 °F 89.6 °F 71.6 °F 66% 30.29 in 7.0 mi SW 12.7 mph - N/A   Haze
11:50 AM 87.8 °F 93.8 °F 71.6 °F 58% 30.28 in 10.0 mi WSW 9.2 mph - N/A   Scattered Clouds
12:50 PM 87.8 °F 93.8 °F 71.6 °F 58% 30.28 in 10.0 mi SW 6.9 mph - N/A   Scattered Clouds
1:45 PM 87.8 °F 93.8 °F 71.6 °F 58% 30.27 in 10.0 mi WSW 8.1 mph - N/A   Scattered Clouds
2:45 PM 80.6 °F 85.4 °F 73.4 °F 79% 30.26 in 10.0 mi WSW 4.6 mph - N/A   Scattered Clouds
3:45 PM 87.8 °F 95.6 °F 73.4 °F 62% 30.25 in 10.0 mi SW 6.9 mph - N/A   Scattered Clouds
4:45 PM 87.8 °F 93.8 °F 71.6 °F 58% 30.24 in 10.0 mi SW 8.1 mph - N/A   Clear
5:45 PM 87.8 °F 97.6 °F 75.2 °F 66% 30.24 in 10.0 mi South 5.8 mph - N/A   Clear
6:45 PM 82.4 °F 87.2 °F 71.6 °F 70% 30.24 in 10.0 mi SW 6.9 mph - N/A   Clear
7:45 PM 80.6 °F 85.4 °F 73.4 °F 79% 30.24 in 10.0 mi SSW 4.6 mph - N/A   Clear
8:50 PM 77.0 °F - 71.6 °F 83% 30.24 in 10.0 mi SSW 5.8 mph - N/A   Clear
9:50 PM 75.2 °F - 73.4 °F 94% 30.26 in 10.0 mi SSW 4.6 mph - N/A   Clear
10:15 PM 73.4 °F - 71.6 °F 94% 30.26 in 10.0 mi SSW 5.8 mph - N/A   Clear
10:35 PM 73.4 °F - 73.4 °F 100% 30.27 in 10.0 mi SW 5.8 mph - N/A   Clear
10:55 PM 75.2 °F - 73.4 °F 94% 30.27 in 10.0 mi SW 5.8 mph - N/A   Clear
11:15 PM 73.4 °F - 73.4 °F 100% 30.27 in 7.0 mi SW 6.9 mph - N/A   Clear
11:35 PM 73.4 °F - 71.6 °F 94% 30.28 in 7.0 mi SW 5.8 mph - N/A   Clear
11:55 PM 73.4 °F - 71.6 °F 94% 30.28 in 7.0 mi SW 5.8 mph - N/A   Clear